Location: Newark
(49.8753°N, 23.0797°E)
Time: 04:02:46
(UTC+00:00)

X-37B - Pass Details

Date: 25 June 2021
Orbit: 383 x 392 km, 45.0° (Epoch: 01 July)

Event Time Altitude Azimuth Distance (km) Brightness Sun altitude
Rises 21:48:30 0° 262° (W) 2,256 4.5 -16.2°
Reaches altitude 10° 21:50:42 10° 252° (WSW) 1,402 3.3 -16.2°
Enters shadow 21:51:45 18° 240° (WSW) 1,037 2.5 -16.3°
